643  
NZUS99 KTBW 200317  
RWRTPA  
FLORIDA REGIONAL WEATHER ROUNDUP  
NATIONAL WEATHER SERVICE TAMPA BAY RUSKIN FL  
1100 PM EDT TUE JUN 19 2018  
 
NOTE: "FAIR" INDICATES FEW OR NO CLOUDS BELOW 12,000 FEET WITH NO  
SIGNIFICANT WEATHER AND/OR S TO VISIBILITY
.  
 
 
STATION/POSITION
 
 
 
FLZ042-048>051-055-056-060-061-200400-  
EXTRA STATIONS  
 
CITY SKY/WX TMP DP RH WIND PRES REMARKS
 
EVERGLADES CTY NOT AVBL  
CRYSTAL RIVER FAIR 77 77 100 CALM 29.98S  
SEBRING FAIR 81 67 62 SE5 29.99R  
EGLIN AFB PTCLDY 82 71 68 W5 29.98R  
CANAVERAL FAIR 77 69 76 S8 29.98S  
 

 
FLZ001>010-012>015-200400-  
PANHANDLE FLORIDA  
 
CITY SKY/WX TMP DP RH WIND PRES REMARKS
 
PENSACOLA FAIR 84 73 69 W7 29.98R HX 90  
PENSACOLA NAS FAIR 81 74 79 W3 29.97S  
MILTON NAS FAIR 80 74 81 W7 29.98R  
CRESTVIEW FAIR 82 72 71 SW3 29.99R  
VALPARAISO PTCLDY 83 73 71 VRB5 29.97R  
MARY ESTHER CLEAR 83 75 75 W6 29.96R HX 91  
PANAMA CITY FAIR 81 75 82 SW5 29.97R  
TYNDALL AFB FAIR 83 78 83 W6 29.97R HX 93  
APALACHICOLA FAIR 83 78 85 W6 29.96R HX 93  
 
STATION/POSITION
 
 
29.2N 88.2W  
28.8N 86.0W  
 

 
FLZ011-016>039-200400-  
NORTH FLORIDA  
 
CITY SKY/WX TMP DP RH WIND PRES REMARKS
 
MARIANNA FAIR 82 75 79 CALM 29.95R  
TALLAHASSEE MOCLDY 85 75 72 SW6 29.95R HX 93  
PERRY FAIR 81 77 88 S3 29.97S  
CROSS CITY CLOUDY 79 N/A N/A CALM 29.98R  
GAINESVILLE FAIR 77 73 87 W5 30.00S  
MAYPORT NAS FAIR 78 75 90 SW3 29.97R  
JACKSONVILLE FAIR 76 75 97 CALM 29.96R  
JAX NAS FAIR 79 73 82 VRB5 29.98R  
JAX CRAIG FAIR 78 77 96 SW3 29.97R  
ST AUGUSTINE FAIR 77 73 87 CALM 29.98S  
 
STATION/POSITION
 
 
KEATON BEACH  
31.4N 80.9W  
ST AUGUSTINE  
 

 
FLZ040-043>046-052-053-057-058-063-200400-  
CENTRAL FLORIDA  
 
CITY SKY/WX TMP DP RH WIND PRES REMARKS
 
OCALA FAIR 75 75 100 CALM 29.99R  
LEESBURG MOCLDY 81 77 88 E3 30.00R  
SANFORD FAIR 82 68 62 S3 30.00R  
ORLANDO EXEC FAIR 81 69 67 SE3 30.00R  
ORLANDO INTL FAIR 79 70 74 SE3 29.99R  
KISSIMMEE FAIR 81 70 69 SE3 30.00R  
WINTER HAVEN FAIR 83 67 58 SE3 30.01R  
BARTOW FAIR 79 68 69 CALM 30.00R  
 

 
FLZ041-047-054-059-064-200400-  
EAST CENTRAL FLORIDA  
 
CITY SKY/WX TMP DP RH WIND PRES REMARKS
 
DAYTONA BEACH FAIR 79 72 79 SW3 29.99S  
JFK SPACE CTR FAIR N/A N/A N/A S5 N/A  
PATRICK AFB FAIR 80 71 74 SE8 29.99R  
MELBOURNE FAIR 80 69 69 S3 29.99R  
VERO BEACH FAIR 74 69 85 S3 30.00R  
FT PIERCE FAIR 74 72 93 CALM 29.99R  
 
STATION/POSITION
 
 
28.9N 78.5W  
 

 
FLZ042-048>051-055-056-060-061-200400-  
WEST CENTRAL FLORIDA  
 
CITY SKY/WX TMP DP RH WIND PRES REMARKS
 
BROOKSVILLE FAIR 77 75 93 CALM 30.00R  
TAMPA FAIR 83 77 82 NW3 29.99R HX 92  
MACDILL AFB FAIR 79 76 92 CALM 29.98R  
ST PETERSBURG FAIR 82 78 88 NW3 29.98R HX 91  
ST PET-WHITTED FAIR 83 79 88 NW5 29.97R HX 94  
SARASOTA FAIR 80 78 94 CALM 29.97R  
 
STATION/POSITION
 
 
CEDAR KEY  
VENICE  
 

 
FLZ062-065-066-069-070-075>078-200400-  
SOUTHWEST FLORIDA AND KEYS  
 
CITY SKY/WX TMP DP RH WIND PRES REMARKS
 
PUNTA GORDA FAIR 85 66 53 SW5 29.99R  
FT MYERS FAIR 83 66 56 SE5 29.97S  
SOUTHWEST INTL FAIR 80 68 66 SE3 29.97S  
NAPLES FAIR 83 71 67 E6 29.96F  
MARATHON FAIR 82 75 79 CALM 29.98F  
KEY WEST NAS FAIR 82 73 74 CALM 29.99R  
KEY WEST INTL FAIR 83 75 77 CALM 29.99R HX 90  
 
STATION/POSITION
 
 
VENICE  
26.0N 85.6W  
SAND KEY  
SOMBRERO KEY  
LONG KEY  
MOLASSES REEF  
 

 
FLZ067-068-071>074-200400-  
SOUTHEAST FLORIDA  
 
CITY SKY/WX TMP DP RH WIND PRES REMARKS
 
W PALM BEACH FAIR 79 70 74 SE6 29.99F  
POMPANO BEACH FAIR 82 70 66 SE7 29.99S  
FT LAUDER-EXEC FAIR 82 72 71 SE6 29.99S  
FT LAUDERDALE FAIR 81 73 76 SE6 29.99S  
PEMBROKE PINES FAIR 81 72 74 E5 30.01R  
OPA LOCKA FAIR 80 72 76 E3 29.99S  
MIAMI FAIR 81 73 76 E8 29.99S  
WEST KENDALL FAIR 78 72 81 E5 29.99S  
HOMESTEAD FAIR 80 74 83 E3 29.98S  
 
STATION/POSITION
 
 
FOWEY ROCKS  
SETTLEMENT POINT  
 

 
 
 
CLICK HERE TO GO TO PREVIOUS BULLETINS.

The Nexlab FL Page Main Text Page